Location: Marse
(42.1502°N, 110.9866°W)
Time: 07:01:55
(UTC+00:00)

ZACube-1 - Pass Details

Date: 06 July 2022
Orbit: 582 x 661 km, 97.6° (Epoch: 11 August)

Event Time Altitude Azimuth Distance (km) Brightness Sun altitude
Rises 10:11:17 0° 30° (NNE) 2,977 ? -15.1°
Reaches altitude 10° 10:14:12 10° 50° (NE) 2,071 ? -14.8°
Maximum altitude 10:17:13 17° 92° (E) 1,636 ? -14.4°
Drops below altitude 10° 10:20:13 10° 134° (SE) 2,073 ? -14.1°
Sets 10:23:07 0° 153° (SSE) 2,981 ? -13.7°
